Wetterdaten: Woche 23.01.12 - 29.01.12 (KW4)
Datum Zeit Temperatur Luftfeuchte Luftdruck Niederschlag Windrichtung Sonnenschein Solar Wind
23.01.2012 00:00 4,7 C 89 % 1015,8 hPa 0,0 l/m W 0,00 h 0 W/m 18,5 km/h (3 Bft)
23.01.2012 01:00 4,2 C 91 % 1015,8 hPa 0,4 l/m W 0,00 h 0 W/m 19,2 km/h (3 Bft)
23.01.2012 02:00 3,5 C 93 % 1016,1 hPa 0,0 l/m W-SW 0,00 h 0 W/m 14,0 km/h (3 Bft)
23.01.2012 03:00 3,6 C 93 % 1016,2 hPa 0,0 l/m W-SW 0,00 h 0 W/m 14,2 km/h (3 Bft)
23.01.2012 04:00 3,8 C 94 % 1016,3 hPa 0,0 l/m W-SW 0,00 h 0 W/m 15,6 km/h (3 Bft)
23.01.2012 05:00 4,1 C 92 % 1016,2 hPa 0,0 l/m W-SW 0,00 h 0 W/m 17,0 km/h (3 Bft)
23.01.2012 06:00 4,1 C 92 % 1016,3 hPa 0,0 l/m W 0,00 h 0 W/m 11,7 km/h (2 Bft)
23.01.2012 07:00 3,9 C 92 % 1016,5 hPa 0,0 l/m W-SW 0,00 h 0 W/m 13,3 km/h (3 Bft)
23.01.2012 08:00 3,9 C 92 % 1016,9 hPa 0,4 l/m W 0,00 h 6 W/m 10,2 km/h (2 Bft)
23.01.2012 09:00 3,7 C 94 % 1017,1 hPa 1,0 l/m W 0,00 h 10 W/m 11,7 km/h (2 Bft)
23.01.2012 10:00 3,4 C 95 % 1017,1 hPa 0,8 l/m W-NW 0,00 h 23 W/m 12,2 km/h (2 Bft)
23.01.2012 11:00 2,9 C 94 % 1017,2 hPa 1,8 l/m W 0,00 h 31 W/m 14,4 km/h (3 Bft)
23.01.2012 12:00 2,9 C 96 % 1016,9 hPa 1,2 l/m W 0,00 h 66 W/m 8,8 km/h (2 Bft)
23.01.2012 13:00 3,6 C 96 % 1016,4 hPa 0,0 l/m W 0,00 h 63 W/m 14,2 km/h (3 Bft)
23.01.2012 14:00 3,8 C 94 % 1016,6 hPa 0,4 l/m W 0,00 h 27 W/m 12,9 km/h (3 Bft)
23.01.2012 15:00 3,5 C 94 % 1016,4 hPa 0,2 l/m W 0,00 h 41 W/m 10,3 km/h (2 Bft)
23.01.2012 16:00 3,6 C 95 % 1016,4 hPa 0,0 l/m W-SW 0,00 h 15 W/m 9,8 km/h (2 Bft)
23.01.2012 17:00 3,5 C 95 % 1016,3 hPa 0,0 l/m SW 0,00 h 0 W/m 10,2 km/h (2 Bft)
23.01.2012 18:00 3,4 C 95 % 1016,4 hPa 0,2 l/m W 0,00 h 0 W/m 6,3 km/h (2 Bft)
23.01.2012 19:00 3,2 C 95 % 1016,6 hPa 0,6 l/m W-NW 0,00 h 0 W/m 6,8 km/h (2 Bft)
23.01.2012 20:00 2,8 C 95 % 1016,6 hPa 0,6 l/m W 0,00 h 0 W/m 9,5 km/h (2 Bft)
23.01.2012 21:00 2,4 C 95 % 1016,4 hPa 0,6 l/m W 0,00 h 0 W/m 11,7 km/h (2 Bft)
23.01.2012 22:00 1,8 C 95 % 1016,6 hPa 0,8 l/m W-NW 0,00 h 0 W/m 11,0 km/h (2 Bft)
23.01.2012 23:00 1,7 C 96 % 1016,6 hPa 0,0 l/m W 0,00 h 0 W/m 10,6 km/h (2 Bft)
24.01.2012 00:00 1,7 C 96 % 1016,3 hPa 0,0 l/m W 0,00 h 0 W/m 7,4 km/h (2 Bft)
24.01.2012 01:00 1,6 C 96 % 1016,1 hPa 0,0 l/m SW 0,00 h 0 W/m 7,2 km/h (2 Bft)
24.01.2012 02:00 1,6 C 96 % 1016,3 hPa 0,0 l/m W 0,00 h 0 W/m 9,8 km/h (2 Bft)
24.01.2012 03:00 1,3 C 95 % 1016,4 hPa 0,0 l/m SW 0,00 h 0 W/m 9,8 km/h (2 Bft)
24.01.2012 04:00 1,1 C 95 % 1017,2 hPa 1,2 l/m NW 0,00 h 0 W/m 14,4 km/h (3 Bft)
24.01.2012 05:00 0,7 C 96 % 1017,5 hPa 1,4 l/m NW 0,00 h 0 W/m 9,8 km/h (2 Bft)
24.01.2012 06:00 0,7 C 96 % 1018,3 hPa 0,0 l/m W-NW 0,00 h 0 W/m 8,2 km/h (2 Bft)
24.01.2012 07:00 0,3 C 95 % 1019,0 hPa 0,0 l/m NW 0,00 h 0 W/m 4,7 km/h (1 Bft)
24.01.2012 08:00 0,1 C 96 % 1019,6 hPa 0,0 l/m N 0,00 h 9 W/m 1,3 km/h (1 Bft)
24.01.2012 09:00 0,3 C 96 % 1020,4 hPa 0,0 l/m N 0,00 h 31 W/m 0,0 km/h (0 Bft)
24.01.2012 10:00 0,7 C 96 % 1020,9 hPa 0,0 l/m NW 0,42 h 163 W/m 2,9 km/h (1 Bft)
24.01.2012 11:00 1,5 C 92 % 1021,3 hPa 0,0 l/m NW 0,42 h 239 W/m 7,8 km/h (2 Bft)
24.01.2012 12:00 1,7 C 90 % 1021,4 hPa 0,0 l/m W 0,00 h 79 W/m 6,8 km/h (2 Bft)
24.01.2012 13:00 1,8 C 89 % 1021,5 hPa 0,0 l/m NW 0,00 h 44 W/m 3,1 km/h (1 Bft)
24.01.2012 14:00 1,8 C 91 % 1021,3 hPa 0,0 l/m W-SW 0,00 h 77 W/m 5,1 km/h (1 Bft)
24.01.2012 15:00 1,9 C 90 % 1021,4 hPa 0,0 l/m W-SW 0,00 h 47 W/m 5,7 km/h (1 Bft)
24.01.2012 16:00 1,7 C 90 % 1021,4 hPa 0,0 l/m N 0,00 h 20 W/m 2,4 km/h (1 Bft)
24.01.2012 17:00 1,2 C 91 % 1021,5 hPa 0,0 l/m N 0,00 h 0 W/m 1,6 km/h (1 Bft)
24.01.2012 18:00 0,4 C 92 % 1021,8 hPa 0,0 l/m N 0,00 h 0 W/m 0,4 km/h (0 Bft)
24.01.2012 19:00 -0,2 C 93 % 1022,2 hPa 0,0 l/m N 0,00 h 0 W/m 0,4 km/h (0 Bft)
24.01.2012 20:00 -0,5 C 94 % 1022,3 hPa 0,0 l/m N 0,00 h 0 W/m 0,0 km/h (0 Bft)
24.01.2012 21:00 -0,4 C 95 % 1022,5 hPa 0,0 l/m N 0,00 h 0 W/m 0,1 km/h (0 Bft)
24.01.2012 22:00 -0,5 C 95 % 1022,4 hPa 0,0 l/m N 0,00 h 0 W/m 0,0 km/h (0 Bft)
24.01.2012 23:00 -0,5 C 96 % 1022,5 hPa 0,0 l/m N 0,00 h 0 W/m 0,3 km/h (0 Bft)
25.01.2012 00:00 -0,5 C 96 % 1022,5 hPa 0,0 l/m N 0,00 h 0 W/m 0,0 km/h (0 Bft)
25.01.2012 01:00 -0,7 C 96 % 1022,3 hPa 0,0 l/m N 0,00 h 0 W/m 0,0 km/h (0 Bft)
25.01.2012 02:00 -0,7 C 97 % 1022,1 hPa 0,0 l/m N 0,00 h 0 W/m 0,0 km/h (0 Bft)
25.01.2012 03:00 -0,7 C 97 % 1022,1 hPa 0,0 l/m N 0,00 h 0 W/m 0,0 km/h (0 Bft)
25.01.2012 04:00 -0,8 C 97 % 1022,0 hPa 0,0 l/m N 0,00 h 0 W/m 0,0 km/h (0 Bft)
25.01.2012 05:00 -0,9 C 97 % 1022,1 hPa 0,0 l/m N 0,00 h 0 W/m 0,1 km/h (0 Bft)
25.01.2012 06:00 -1,0 C 97 % 1022,3 hPa 0,0 l/m N 0,00 h 0 W/m 0,0 km/h (0 Bft)
25.01.2012 07:00 -1,2 C 97 % 1022,5 hPa 0,0 l/m N 0,00 h 0 W/m 0,0 km/h (0 Bft)
25.01.2012 08:00 -1,7 C 97 % 1022,6 hPa 0,0 l/m N 0,08 h 24 W/m 0,1 km/h (0 Bft)
25.01.2012 09:00 -1,3 C 97 % 1022,5 hPa 0,0 l/m N 0,42 h 96 W/m 0,0 km/h (0 Bft)
25.01.2012 10:00 -0,2 C 95 % 1022,5 hPa 0,0 l/m W-SW 1,00 h 235 W/m 2,7 km/h (1 Bft)
25.01.2012 11:00 1,1 C 91 % 1022,3 hPa 0,0 l/m W-SW 1,00 h 364 W/m 4,4 km/h (1 Bft)
25.01.2012 12:00 1,3 C 93 % 1021,9 hPa 0,0 l/m NW 0,58 h 312 W/m 6,3 km/h (2 Bft)
25.01.2012 13:00 1,9 C 90 % 1021,5 hPa 0,0 l/m NW 0,92 h 355 W/m 8,4 km/h (2 Bft)
25.01.2012 14:00 1,3 C 91 % 1021,3 hPa 0,0 l/m N-NW 1,00 h 293 W/m 8,3 km/h (2 Bft)
25.01.2012 15:00 1,1 C 91 % 1021,2 hPa 0,0 l/m N 0,67 h 136 W/m 8,4 km/h (2 Bft)
25.01.2012 16:00 -0,4 C 93 % 1021,3 hPa 0,0 l/m N-NW 0,17 h 35 W/m 7,6 km/h (2 Bft)
25.01.2012 17:00 -1,1 C 95 % 1021,2 hPa 0,0 l/m N-NW 0,00 h 5 W/m 4,3 km/h (1 Bft)
25.01.2012 18:00 -1,4 C 96 % 1021,3 hPa 0,0 l/m N-NO 0,00 h 0 W/m 3,9 km/h (1 Bft)
25.01.2012 19:00 -1,7 C 96 % 1021,2 hPa 0,0 l/m NO 0,00 h 0 W/m 5,1 km/h (1 Bft)
25.01.2012 20:00 -2,0 C 96 % 1021,2 hPa 0,0 l/m N-NO 0,00 h 0 W/m 6,0 km/h (2 Bft)
25.01.2012 21:00 -2,2 C 96 % 1021,2 hPa 0,0 l/m N-NO 0,00 h 0 W/m 6,0 km/h (2 Bft)
25.01.2012 22:00 -2,3 C 97 % 1021,0 hPa 0,0 l/m NO 0,00 h 0 W/m 6,8 km/h (2 Bft)
25.01.2012 23:00 -2,4 C 97 % 1020,9 hPa 0,0 l/m NO 0,00 h 0 W/m 7,4 km/h (2 Bft)
26.01.2012 00:00 -2,6 C 97 % 1020,7 hPa 0,0 l/m O-NO 0,00 h 0 W/m 6,8 km/h (2 Bft)
26.01.2012 01:00 -2,7 C 97 % 1020,7 hPa 0,0 l/m O-NO 0,00 h 0 W/m 6,4 km/h (2 Bft)
26.01.2012 02:00 -2,8 C 96 % 1020,6 hPa 0,0 l/m NO 0,00 h 0 W/m 6,6 km/h (2 Bft)
26.01.2012 03:00 -2,8 C 96 % 1020,3 hPa 0,0 l/m O-NO 0,00 h 0 W/m 6,5 km/h (2 Bft)
26.01.2012 04:00 -3,1 C 96 % 1020,2 hPa 0,0 l/m O 0,00 h 0 W/m 8,0 km/h (2 Bft)
26.01.2012 05:00 -3,2 C 96 % 1020,1 hPa 0,0 l/m O 0,00 h 0 W/m 7,1 km/h (2 Bft)
26.01.2012 06:00 -3,4 C 96 % 1020,2 hPa 0,0 l/m O-NO 0,00 h 0 W/m 8,4 km/h (2 Bft)
26.01.2012 07:00 -3,9 C 95 % 1020,5 hPa 0,0 l/m NO 0,00 h 0 W/m 9,2 km/h (2 Bft)
26.01.2012 08:00 -4,2 C 95 % 1020,6 hPa 0,0 l/m NO 0,00 h 13 W/m 10,6 km/h (2 Bft)
26.01.2012 09:00 -3,9 C 96 % 1020,6 hPa 0,0 l/m NO 0,00 h 41 W/m 8,2 km/h (2 Bft)
26.01.2012 10:00 -3,3 C 94 % 1020,6 hPa 0,0 l/m O-NO 0,00 h 70 W/m 8,2 km/h (2 Bft)
26.01.2012 11:00 -2,9 C 93 % 1020,3 hPa 0,0 l/m NO 0,00 h 98 W/m 10,3 km/h (2 Bft)
26.01.2012 12:00 -2,5 C 92 % 1020,1 hPa 0,0 l/m NO 0,00 h 121 W/m 9,4 km/h (2 Bft)
26.01.2012 13:00 -1,5 C 90 % 1020,0 hPa 0,0 l/m NO 0,25 h 203 W/m 8,4 km/h (2 Bft)
26.01.2012 14:00 -0,0 C 86 % 1019,6 hPa 0,0 l/m O 1,00 h 310 W/m 9,0 km/h (2 Bft)
26.01.2012 15:00 0,8 C 83 % 1019,4 hPa 0,0 l/m O-SO 0,58 h 138 W/m 5,9 km/h (2 Bft)
26.01.2012 16:00 0,7 C 83 % 1019,4 hPa 0,0 l/m N 0,00 h 34 W/m 2,7 km/h (1 Bft)
26.01.2012 17:00 0,2 C 85 % 1019,6 hPa 0,0 l/m N 0,00 h 5 W/m 2,1 km/h (1 Bft)
26.01.2012 18:00 0,1 C 86 % 1019,8 hPa 0,0 l/m O-SO 0,00 h 0 W/m 4,3 km/h (1 Bft)
26.01.2012 19:00 -0,1 C 85 % 1020,2 hPa 0,0 l/m N 0,00 h 0 W/m 1,7 km/h (1 Bft)
26.01.2012 20:00 -0,2 C 86 % 1020,1 hPa 0,0 l/m O-SO 0,00 h 0 W/m 3,1 km/h (1 Bft)
26.01.2012 21:00 -0,3 C 86 % 1020,4 hPa 0,0 l/m N 0,00 h 0 W/m 0,3 km/h (0 Bft)
26.01.2012 22:00 -0,4 C 87 % 1020,4 hPa 0,0 l/m N 0,00 h 0 W/m 0,1 km/h (0 Bft)
26.01.2012 23:00 -0,3 C 89 % 1020,7 hPa 0,0 l/m N 0,00 h 0 W/m 0,5 km/h (0 Bft)
27.01.2012 00:00 -0,4 C 92 % 1020,9 hPa 0,0 l/m N 0,00 h 0 W/m 0,9 km/h (0 Bft)
27.01.2012 01:00 -0,6 C 93 % 1020,9 hPa 0,0 l/m N 0,00 h 0 W/m 0,0 km/h (0 Bft)
27.01.2012 02:00 -0,4 C 95 % 1021,0 hPa 1,4 l/m N 0,00 h 0 W/m 0,0 km/h (0 Bft)
27.01.2012 03:00 -0,2 C 95 % 1021,0 hPa 0,2 l/m N 0,00 h 0 W/m 0,5 km/h (0 Bft)
27.01.2012 04:00 -0,1 C 96 % 1021,0 hPa 0,0 l/m N 0,00 h 0 W/m 0,0 km/h (0 Bft)
27.01.2012 05:00 -0,1 C 96 % 1021,2 hPa 0,0 l/m N 0,00 h 0 W/m 0,0 km/h (0 Bft)
27.01.2012 06:00 0,0 C 96 % 1021,4 hPa 0,0 l/m N 0,00 h 0 W/m 0,0 km/h (0 Bft)
27.01.2012 07:00 0,2 C 97 % 1022,0 hPa 0,0 l/m N 0,00 h 0 W/m 0,0 km/h (0 Bft)
27.01.2012 08:00 0,3 C 97 % 1022,3 hPa 0,0 l/m N 0,00 h 7 W/m 0,0 km/h (0 Bft)
27.01.2012 09:00 0,5 C 97 % 1022,4 hPa 0,0 l/m N 0,00 h 28 W/m 0,1 km/h (0 Bft)
27.01.2012 10:00 0,7 C 97 % 1022,9 hPa 0,0 l/m N 0,00 h 35 W/m 0,0 km/h (0 Bft)
27.01.2012 11:00 1,2 C 98 % 1023,1 hPa 0,0 l/m N 0,00 h 51 W/m 0,0 km/h (0 Bft)
27.01.2012 12:00 1,9 C 98 % 1023,0 hPa 0,0 l/m N 0,00 h 62 W/m 0,3 km/h (0 Bft)
27.01.2012 13:00 2,3 C 98 % 1023,0 hPa 0,0 l/m N 0,00 h 45 W/m 0,8 km/h (0 Bft)
27.01.2012 14:00 2,6 C 98 % 1023,1 hPa 0,0 l/m N 0,00 h 28 W/m 0,3 km/h (0 Bft)
27.01.2012 15:00 2,6 C 98 % 1023,4 hPa 0,0 l/m N 0,00 h 20 W/m 1,2 km/h (1 Bft)
27.01.2012 16:00 2,6 C 98 % 1023,5 hPa 0,0 l/m N 0,00 h 7 W/m 0,8 km/h (0 Bft)
27.01.2012 17:00 2,4 C 98 % 1023,8 hPa 0,2 l/m N 0,00 h 0 W/m 2,3 km/h (1 Bft)
27.01.2012 18:00 2,3 C 97 % 1024,0 hPa 0,0 l/m O-SO 0,00 h 0 W/m 2,7 km/h (1 Bft)
27.01.2012 19:00 2,1 C 97 % 1024,3 hPa 0,2 l/m N 0,00 h 0 W/m 1,6 km/h (1 Bft)
27.01.2012 20:00 1,7 C 97 % 1024,4 hPa 0,6 l/m O-SO 0,00 h 0 W/m 4,0 km/h (1 Bft)
27.01.2012 21:00 1,2 C 97 % 1024,5 hPa 0,6 l/m N 0,00 h 0 W/m 2,0 km/h (1 Bft)
27.01.2012 22:00 0,8 C 97 % 1024,6 hPa 0,6 l/m N 0,00 h 0 W/m 1,6 km/h (1 Bft)
27.01.2012 23:00 0,6 C 97 % 1024,8 hPa 0,4 l/m N 0,00 h 0 W/m 0,8 km/h (0 Bft)
28.01.2012 00:00 0,6 C 97 % 1024,8 hPa 0,4 l/m O-SO 0,00 h 0 W/m 1,9 km/h (1 Bft)
28.01.2012 01:00 0,6 C 97 % 1024,8 hPa 0,2 l/m N 0,00 h 0 W/m 1,2 km/h (1 Bft)
28.01.2012 02:00 0,5 C 97 % 1024,8 hPa 0,6 l/m N 0,00 h 0 W/m 0,5 km/h (0 Bft)
28.01.2012 03:00 0,4 C 98 % 1024,8 hPa 0,6 l/m N 0,00 h 0 W/m 0,3 km/h (0 Bft)
28.01.2012 04:00 0,4 C 98 % 1024,7 hPa 0,4 l/m N 0,00 h 0 W/m 0,0 km/h (0 Bft)
28.01.2012 05:00 0,4 C 98 % 1025,0 hPa 0,4 l/m N 0,00 h 0 W/m 0,0 km/h (0 Bft)
28.01.2012 06:00 0,3 C 98 % 1025,1 hPa 0,2 l/m N 0,00 h 0 W/m 0,0 km/h (0 Bft)
28.01.2012 07:00 0,3 C 98 % 1025,4 hPa 0,0 l/m N 0,00 h 0 W/m 0,0 km/h (0 Bft)
28.01.2012 08:00 0,2 C 98 % 1025,5 hPa 0,0 l/m N 0,00 h 28 W/m 0,0 km/h (0 Bft)
28.01.2012 09:00 0,6 C 98 % 1025,7 hPa 0,0 l/m N 0,00 h 62 W/m 0,1 km/h (0 Bft)
28.01.2012 10:00 0,9 C 98 % 1025,9 hPa 0,0 l/m N 0,00 h 111 W/m 0,4 km/h (0 Bft)
28.01.2012 11:00 1,0 C 98 % 1025,9 hPa 0,0 l/m N 0,00 h 136 W/m 0,9 km/h (0 Bft)
28.01.2012 12:00 1,4 C 96 % 1025,4 hPa 0,0 l/m O-SO 0,17 h 174 W/m 3,5 km/h (1 Bft)
28.01.2012 13:00 1,8 C 94 % 1024,9 hPa 0,0 l/m O 0,33 h 158 W/m 7,9 km/h (2 Bft)
28.01.2012 14:00 1,9 C 93 % 1024,6 hPa 0,0 l/m O 0,17 h 108 W/m 8,7 km/h (2 Bft)
28.01.2012 15:00 1,7 C 93 % 1024,4 hPa 0,0 l/m O-NO 0,00 h 40 W/m 6,1 km/h (2 Bft)
28.01.2012 16:00 1,5 C 93 % 1024,2 hPa 0,0 l/m O-NO 0,00 h 28 W/m 4,9 km/h (1 Bft)
28.01.2012 17:00 1,1 C 93 % 1024,2 hPa 0,0 l/m O-NO 0,00 h 5 W/m 5,6 km/h (1 Bft)
28.01.2012 18:00 0,8 C 94 % 1024,3 hPa 0,0 l/m O-NO 0,00 h 0 W/m 7,9 km/h (2 Bft)
28.01.2012 19:00 0,7 C 94 % 1024,3 hPa 0,0 l/m O-NO 0,00 h 0 W/m 8,4 km/h (2 Bft)
28.01.2012 20:00 0,6 C 95 % 1024,1 hPa 0,0 l/m O-NO 0,00 h 0 W/m 8,0 km/h (2 Bft)
28.01.2012 21:00 0,3 C 95 % 1023,8 hPa 0,0 l/m O-NO 0,00 h 0 W/m 11,6 km/h (2 Bft)
28.01.2012 22:00 0,1 C 95 % 1023,8 hPa 0,0 l/m O-NO 0,00 h 0 W/m 13,3 km/h (3 Bft)
28.01.2012 23:00 -0,2 C 95 % 1023,9 hPa 0,0 l/m NO 0,00 h 0 W/m 10,9 km/h (2 Bft)
29.01.2012 00:00 -0,4 C 94 % 1023,5 hPa 0,0 l/m O-NO 0,00 h 0 W/m 13,0 km/h (3 Bft)
29.01.2012 01:00 -0,9 C 94 % 1023,1 hPa 0,0 l/m O-NO 0,00 h 0 W/m 15,4 km/h (3 Bft)
29.01.2012 02:00 -1,2 C 94 % 1023,0 hPa 0,0 l/m O-NO 0,00 h 0 W/m 12,8 km/h (3 Bft)
29.01.2012 03:00 -1,3 C 93 % 1022,6 hPa 0,0 l/m O-NO 0,00 h 0 W/m 14,8 km/h (3 Bft)
29.01.2012 04:00 -1,4 C 94 % 1022,4 hPa 0,0 l/m O-NO 0,00 h 0 W/m 14,9 km/h (3 Bft)
29.01.2012 05:00 -1,4 C 94 % 1022,0 hPa 0,0 l/m O-NO 0,00 h 0 W/m 13,2 km/h (3 Bft)
29.01.2012 06:00 -1,4 C 94 % 1022,0 hPa 0,0 l/m O-NO 0,00 h 0 W/m 15,8 km/h (3 Bft)
29.01.2012 07:00 -1,6 C 95 % 1022,2 hPa 0,0 l/m NO 0,00 h 0 W/m 14,2 km/h (3 Bft)
29.01.2012 08:00 -1,6 C 96 % 1022,3 hPa 0,0 l/m O-NO 0,00 h 6 W/m 12,5 km/h (3 Bft)
29.01.2012 09:00 -1,7 C 96 % 1022,3 hPa 0,0 l/m NO 0,00 h 12 W/m 13,0 km/h (3 Bft)
29.01.2012 10:00 -1,8 C 96 % 1022,5 hPa 0,0 l/m O-NO 0,00 h 15 W/m 13,2 km/h (3 Bft)
29.01.2012 11:00 -1,8 C 96 % 1022,3 hPa 0,0 l/m NO 0,00 h 23 W/m 12,8 km/h (3 Bft)
29.01.2012 12:00 -1,9 C 96 % 1022,1 hPa 0,0 l/m NO 0,00 h 28 W/m 12,0 km/h (2 Bft)
29.01.2012 13:00 -1,9 C 96 % 1022,0 hPa 0,0 l/m NO 0,00 h 26 W/m 11,4 km/h (2 Bft)
29.01.2012 14:00 -2,0 C 96 % 1021,7 hPa 0,0 l/m NO 0,00 h 18 W/m 12,9 km/h (3 Bft)
29.01.2012 15:00 -1,9 C 96 % 1021,7 hPa 0,0 l/m O-NO 0,00 h 13 W/m 11,4 km/h (2 Bft)
29.01.2012 16:00 -1,9 C 95 % 1022,2 hPa 0,0 l/m O-NO 0,00 h 8 W/m 14,9 km/h (3 Bft)
29.01.2012 17:00 -1,8 C 94 % 1022,5 hPa 0,0 l/m O-NO 0,00 h 0 W/m 12,9 km/h (3 Bft)
29.01.2012 18:00 -1,9 C 93 % 1022,9 hPa 0,0 l/m NO 0,00 h 0 W/m 12,3 km/h (3 Bft)
29.01.2012 19:00 -2,0 C 92 % 1022,9 hPa 0,0 l/m NO 0,00 h 0 W/m 7,6 km/h (2 Bft)
29.01.2012 20:00 -2,1 C 92 % 1023,0 hPa 0,0 l/m O 0,00 h 0 W/m 9,8 km/h (2 Bft)
29.01.2012 21:00 -2,2 C 92 % 1022,8 hPa 0,0 l/m NO 0,00 h 0 W/m 4,5 km/h (1 Bft)
29.01.2012 22:00 -2,2 C 92 % 1022,8 hPa 0,0 l/m O-NO 0,00 h 0 W/m 7,2 km/h (2 Bft)
29.01.2012 23:00 -2,3 C 92 % 1022,8 hPa 0,0 l/m NO 0,00 h 0 W/m 7,0 km/h (2 Bft)
Min-Datum _ 26.01.12 26.01.12 23.01.12 - - - - 23.01.12
_ Min-Zeit 08:05 15:10 00:00 - - - - 20:10
Minimum _ -4,2 C 83 % 1015,5 hPa - - - - 0,0 km/h (0 Bft)
Max-Datum _ 23.01.12 28.01.12 28.01.12 23.01.12 - 24.01.12 24.01.12 23.01.12
_ Max-Zeit 00:00 17:45 11:00 11:25 - 10:25 11:25 01:15
Maximum _ 4,7 C 100 % 1026,1 hPa 1,8 l/m - 0,08 h 445 W/m 27,4 km/h
W-SW (4 Bft)
Durchschnitt _ 0,3 C 94 % 1021,2 hPa #18,6 l/m O-NO #9:10 h 78 W/m 6,2 km/h (2 Bft)